| time (UTC) | temp F | wind direction | speed knots | gust knots | rain 1hr in | rain 24hr in | rain mn in | humidity % | barometer mb |
| 20260507114003 | 45 | 251 | 0.0 | 0.0 | 0.00 | 0.00 | 0.00 | 75 | 1012.7 |
| 20260507113504 | 45 | 234 | 0.0 | 0.0 | 0.00 | 0.00 | 0.00 | 75 | 1012.7 |
| 20260507113027 | 44 | 240 | 0.0 | 0.0 | 0.00 | 0.00 | 0.00 | 74 | 1012.7 |
| 20260507112502 | 45 | 202 | 0.0 | 0.0 | 0.00 | 0.00 | 0.00 | 74 | 1012.7 |
| 20260507112007 | 45 | 242 | 0.0 | 0.0 | 0.00 | 0.00 | 0.00 | 74 | 1012.7 |
| 20260507111515 | 45 | 213 | 0.0 | 0.0 | 0.00 | 0.00 | 0.00 | 74 | 1012.7 |
| 20260507111006 | 44 | 251 | 0.0 | 0.0 | 0.00 | 0.00 | 0.00 | 74 | 1012.7 |
| 20260507110507 | 44 | 213 | 0.0 | 0.0 | 0.00 | 0.00 | 0.00 | 74 | 1012.7 |
| 20260507110020 | 44 | 216 | 0.0 | 0.0 | 0.00 | 0.00 | 0.00 | 74 | 1012.7 |
| 20260507105509 | 44 | 221 | 0.0 | 0.0 | 0.00 | 0.00 | 0.00 | 74 | 1012.6 |
| 20260507105004 | 44 | 205 | 0.0 | 0.0 | 0.00 | 0.00 | 0.00 | 74 | 1012.7 |
| 20260507104515 | 44 | 213 | 0.0 | 0.0 | 0.00 | 0.00 | 0.00 | 73 | 1012.7 |
| 20260507104010 | 44 | 238 | 0.0 | 0.0 | 0.00 | 0.00 | 0.00 | 73 | 1012.8 |
| 20260507103512 | 44 | 243 | 0.0 | 0.0 | 0.00 | 0.00 | 0.00 | 73 | 1012.7 |
| 20260507103004 | 44 | 241 | 0.0 | 0.0 | 0.00 | 0.00 | 0.00 | 73 | 1012.7 |
| 20260507102506 | 44 | 211 | 0.0 | 0.0 | 0.00 | 0.00 | 0.00 | 72 | 1012.7 |
| 20260507102014 | 44 | 210 | 0.0 | 0.0 | 0.00 | 0.00 | 0.00 | 72 | 1012.7 |
| 20260507101508 | 45 | 209 | 0.0 | 0.0 | 0.00 | 0.00 | 0.00 | 72 | 1012.7 |
| 20260507101007 | 45 | 211 | 0.0 | 0.0 | 0.00 | 0.00 | 0.00 | 71 | 1012.6 |
| 20260507100506 | 45 | 192 | 0.0 | 0.0 | 0.00 | 0.00 | 0.00 | 71 | 1012.7 |
| 20260507100021 | 45 | 200 | 0.0 | 0.0 | 0.00 | 0.00 | 0.00 | 71 | 1012.8 |
| 20260507095504 | 45 | 202 | 0.0 | 0.0 | 0.00 | 0.00 | 0.00 | 70 | 1012.8 |
| 20260507095006 | 45 | 197 | 0.0 | 0.0 | 0.00 | 0.00 | 0.00 | 70 | 1012.8 |
| 20260507094526 | 46 | 198 | 0.0 | 0.0 | 0.00 | 0.00 | 0.00 | 70 | 1012.9 |
| 20260507094015 | 46 | 196 | 0.0 | 0.0 | 0.00 | 0.00 | 0.00 | 69 | 1012.9 |
| 20260507093507 | 46 | 196 | 0.0 | 0.0 | 0.00 | 0.00 | 0.00 | 69 | 1013.0 |
| 20260507093020 | 46 | 205 | 0.0 | 0.0 | 0.00 | 0.00 | 0.00 | 69 | 1013.1 |
| 20260507092509 | 46 | 206 | 0.0 | 0.0 | 0.00 | 0.00 | 0.00 | 68 | 1013.1 |
| 20260507092006 | 46 | 206 | 0.0 | 0.0 | 0.00 | 0.00 | 0.00 | 68 | 1013.1 |
| 20260507091511 | 46 | 238 | 0.0 | 0.0 | 0.00 | 0.00 | 0.00 | 68 | 1013.1 |
| 20260507091007 | 47 | 206 | 0.0 | 0.0 | 0.00 | 0.00 | 0.00 | 67 | 1013.2 |
| 20260507090503 | 47 | 214 | 0.0 | 0.0 | 0.00 | 0.00 | 0.00 | 67 | 1013.2 |
| 20260507090016 | 47 | 224 | 0.0 | 0.0 | 0.00 | 0.00 | 0.00 | 67 | 1013.2 |
| 20260507085507 | 47 | 202 | 0.0 | 0.0 | 0.00 | 0.00 | 0.00 | 67 | 1013.3 |
| 20260507085009 | 47 | 213 | 0.0 | 0.0 | 0.00 | 0.00 | 0.00 | 66 | 1013.4 |
| 20260507084512 | 47 | 213 | 0.0 | 0.9 | 0.00 | 0.00 | 0.00 | 66 | 1013.4 |
| 20260507084008 | 47 | 207 | 0.0 | 0.9 | 0.00 | 0.00 | 0.00 | 66 | 1013.4 |
| 20260507083508 | 47 | 239 | 0.0 | 0.9 | 0.00 | 0.00 | 0.00 | 66 | 1013.5 |
| 20260507083024 | 47 | 205 | 0.0 | 0.0 | 0.00 | 0.00 | 0.00 | 65 | 1013.6 |
| 20260507082507 | 47 | 216 | 0.0 | 0.0 | 0.00 | 0.00 | 0.00 | 65 | 1013.7 |
| 20260507082010 | 47 | 242 | 0.0 | 0.0 | 0.00 | 0.00 | 0.00 | 64 | 1013.7 |
| 20260507081531 | 47 | 242 | 0.0 | 0.0 | 0.00 | 0.00 | 0.00 | 64 | 1013.7 |
| 20260507081010 | 47 | 205 | 0.0 | 0.0 | 0.00 | 0.00 | 0.00 | 64 | 1013.7 |
| 20260507080507 | 47 | 202 | 0.0 | 0.0 | 0.00 | 0.00 | 0.00 | 64 | 1013.8 |
| 20260507080013 | 47 | 198 | 0.0 | 0.0 | 0.00 | 0.00 | 0.00 | 64 | 1013.9 |
| 20260507075503 | 47 | 211 | 0.0 | 0.0 | 0.00 | 0.00 | 0.00 | 64 | 1013.9 |
| 20260507075008 | 47 | 205 | 0.0 | 0.0 | 0.00 | 0.00 | 0.00 | 63 | 1013.9 |
| 20260507074518 | 46 | 240 | 0.0 | 0.0 | 0.00 | 0.00 | 0.00 | 63 | 1013.9 |
| 20260507074009 | 46 | 205 | 0.0 | 0.0 | 0.00 | 0.00 | 0.00 | 63 | 1014.0 |
| 20260507073510 | 46 | 246 | 0.0 | 0.0 | 0.00 | 0.00 | 0.00 | 62 | 1014.0 |
| 20260507073019 | 45 | 246 | 0.0 | 0.0 | 0.00 | 0.00 | 0.00 | 62 | 1014.1 |
| 20260507072508 | 45 | 231 | 0.0 | 0.0 | 0.00 | 0.00 | 0.00 | 61 | 1014.1 |
| 20260507072007 | 45 | 279 | 0.0 | 0.0 | 0.00 | 0.00 | 0.00 | 60 | 1014.2 |
| 20260507071514 | 44 | 279 | 0.0 | 0.0 | 0.00 | 0.00 | 0.00 | 59 | 1014.2 |
| 20260507071009 | 44 | 279 | 0.0 | 0.0 | 0.00 | 0.00 | 0.00 | 58 | 1014.3 |
| 20260507070503 | 44 | 279 | 0.0 | 0.0 | 0.00 | 0.00 | 0.00 | 57 | 1014.4 |
| 20260507070013 | 44 | 279 | 0.0 | 0.0 | 0.00 | 0.00 | 0.00 | 57 | 1014.5 |
| 20260507065503 | 44 | 279 | 0.0 | 0.0 | 0.00 | 0.00 | 0.00 | 56 | 1014.6 |
| 20260507065002 | 44 | 279 | 0.0 | 0.0 | 0.00 | 0.00 | 0.00 | 55 | 1014.6 |
| 20260507064512 | 44 | 279 | 0.0 | 0.0 | 0.00 | 0.00 | 0.00 | 54 | 1014.7 |
| 20260507064006 | 44 | 279 | 0.0 | 0.0 | 0.00 | 0.00 | 0.00 | 54 | 1014.7 |
| 20260507063503 | 44 | 279 | 0.0 | 0.0 | 0.00 | 0.00 | 0.00 | 53 | 1014.8 |
| 20260507063002 | 44 | 279 | 0.0 | 0.0 | 0.00 | 0.00 | 0.00 | 53 | 1014.8 |
| 20260507062503 | 44 | 279 | 0.0 | 0.0 | 0.00 | 0.00 | 0.00 | 52 | 1015.0 |
| 20260507062009 | 44 | 279 | 0.0 | 0.0 | 0.00 | 0.00 | 0.00 | 52 | 1015.0 |
| 20260507061504 | 44 | 279 | 0.0 | 0.0 | 0.00 | 0.00 | 0.00 | 52 | 1014.9 |
| 20260507061003 | 44 | 279 | 0.0 | 0.0 | 0.00 | 0.00 | 0.00 | 51 | 1015.0 |
| 20260507060503 | 44 | 279 | 0.0 | 0.0 | 0.00 | 0.00 | 0.00 | 51 | 1015.0 |
| 20260507060003 | 44 | 279 | 0.0 | 0.0 | 0.00 | 0.00 | 0.00 | 51 | 1015.1 |
| 20260507055504 | 45 | 279 | 0.0 | 0.0 | 0.00 | 0.00 | 0.00 | 52 | 1015.0 |
| 20260507055002 | 45 | 279 | 0.0 | 0.0 | 0.00 | 0.00 | 0.00 | 53 | 1015.1 |
| 20260507054515 | 45 | 279 | 0.0 | 0.0 | 0.00 | 0.00 | 0.00 | 53 | 1015.0 |
| 20260507054003 | 45 | 279 | 0.0 | 0.0 | 0.00 | 0.00 | 0.00 | 52 | 1015.0 |
| 20260507053502 | 46 | 279 | 0.0 | 0.0 | 0.00 | 0.00 | 0.00 | 51 | 1015.1 |
| 20260507053015 | 46 | 279 | 0.0 | 0.0 | 0.00 | 0.00 | 0.00 | 52 | 1015.1 |
| 20260507052506 | 46 | 279 | 0.0 | 0.0 | 0.00 | 0.00 | 0.00 | 52 | 1015.1 |
| 20260507052003 | 46 | 279 | 0.0 | 0.0 | 0.00 | 0.00 | 0.00 | 52 | 1015.1 |
| 20260507051510 | 46 | 279 | 0.0 | 0.0 | 0.00 | 0.00 | 0.00 | 52 | 1015.0 |
| 20260507051006 | 46 | 279 | 0.0 | 0.0 | 0.00 | 0.00 | 0.00 | 53 | 1015.0 |
| 20260507050503 | 46 | 279 | 0.0 | 0.0 | 0.00 | 0.00 | 0.00 | 54 | 1015.1 |
| 20260507050015 | 46 | 279 | 0.0 | 0.0 | 0.00 | 0.00 | 0.00 | 54 | 1015.0 |
| 20260507045503 | 46 | 279 | 0.0 | 0.0 | 0.00 | 0.00 | 0.00 | 54 | 1015.1 |
| 20260507045003 | 46 | 279 | 0.0 | 0.0 | 0.00 | 0.00 | 0.00 | 54 | 1015.1 |
| 20260507044507 | 46 | 279 | 0.0 | 0.0 | 0.00 | 0.00 | 0.00 | 54 | 1015.1 |
| 20260507044003 | 46 | 279 | 0.0 | 0.0 | 0.00 | 0.00 | 0.00 | 54 | 1015.2 |
| 20260507043507 | 47 | 279 | 0.0 | 0.0 | 0.00 | 0.00 | 0.00 | 54 | 1015.2 |
| 20260507043011 | 47 | 279 | 0.0 | 0.0 | 0.00 | 0.00 | 0.00 | 53 | 1015.2 |
| 20260507042503 | 47 | 279 | 0.0 | 0.0 | 0.00 | 0.00 | 0.00 | 53 | 1015.3 |
| 20260507042007 | 47 | 279 | 0.0 | 0.0 | 0.00 | 0.00 | 0.00 | 53 | 1015.3 |
| 20260507041514 | 47 | 279 | 0.0 | 0.0 | 0.00 | 0.00 | 0.00 | 53 | 1015.3 |
| 20260507041003 | 47 | 279 | 0.0 | 0.0 | 0.00 | 0.00 | 0.00 | 52 | 1015.4 |
| 20260507040503 | 47 | 279 | 0.0 | 0.0 | 0.00 | 0.00 | 0.00 | 50 | 1015.4 |
| 20260507040018 | 48 | 279 | 0.0 | 0.0 | 0.00 | 0.00 | 0.00 | 50 | 1015.5 |
| 20260507035502 | 48 | 279 | 0.0 | 0.0 | 0.00 | 0.00 | 0.00 | 49 | 1015.5 |
| 20260507035003 | 48 | 279 | 0.0 | 0.0 | 0.00 | 0.00 | 0.00 | 48 | 1015.5 |
| 20260507034505 | 48 | 279 | 0.0 | 0.0 | 0.00 | 0.00 | 0.00 | 47 | 1015.7 |
| 20260507034003 | 49 | 279 | 0.0 | 0.0 | 0.00 | 0.00 | 0.00 | 46 | 1015.7 |
| 20260507033504 | 49 | 279 | 0.0 | 0.0 | 0.00 | 0.00 | 0.00 | 43 | 1015.7 |
| 20260507033010 | 49 | 279 | 0.0 | 0.0 | 0.00 | 0.00 | 0.00 | 41 | 1015.8 |
| 20260507032504 | 49 | 279 | 0.0 | 0.0 | 0.00 | 0.00 | 0.00 | 39 | 1015.8 |
| 20260507032005 | 49 | 279 | 0.0 | 0.0 | 0.00 | 0.00 | 0.00 | 36 | 1015.8 |
| 20260507031504 | 50 | 279 | 0.0 | 0.0 | 0.00 | 0.00 | 0.00 | 35 | 1015.8 |
| 20260507031006 | 50 | 279 | 0.0 | 0.0 | 0.00 | 0.00 | 0.00 | 33 | 1015.8 |
| 20260507030508 | 50 | 279 | 0.0 | 0.0 | 0.00 | 0.00 | 0.00 | 33 | 1015.8 |
| 20260507030025 | 50 | 279 | 0.0 | 0.0 | 0.00 | 0.00 | 0.00 | 33 | 1015.7 |
| 20260507025504 | 51 | 279 | 0.0 | 0.0 | 0.00 | 0.00 | 0.00 | 32 | 1015.7 |
| 20260507025005 | 51 | 279 | 0.0 | 0.0 | 0.00 | 0.00 | 0.00 | 31 | 1015.7 |
| 20260507024521 | 51 | 279 | 0.0 | 0.0 | 0.00 | 0.00 | 0.00 | 30 | 1015.8 |
| 20260507024002 | 51 | 279 | 0.0 | 0.0 | 0.00 | 0.00 | 0.00 | 31 | 1015.8 |
| 20260507023502 | 52 | 279 | 0.0 | 0.0 | 0.00 | 0.00 | 0.00 | 29 | 1015.7 |
| 20260507023004 | 52 | 279 | 0.0 | 0.0 | 0.00 | 0.00 | 0.00 | 29 | 1015.6 |
| 20260507022504 | 52 | 279 | 0.0 | 0.0 | 0.00 | 0.00 | 0.00 | 29 | 1015.6 |
| 20260507022005 | 52 | 279 | 0.0 | 0.0 | 0.00 | 0.00 | 0.00 | 28 | 1015.6 |
| 20260507021513 | 53 | 279 | 0.0 | 0.0 | 0.00 | 0.00 | 0.00 | 28 | 1015.6 |
| 20260507021008 | 53 | 279 | 0.0 | 0.0 | 0.00 | 0.00 | 0.00 | 27 | 1015.5 |
| 20260507020503 | 53 | 279 | 0.0 | 0.0 | 0.00 | 0.00 | 0.00 | 27 | 1015.4 |
| 20260507020009 | 53 | 279 | 0.0 | 0.0 | 0.00 | 0.00 | 0.00 | 27 | 1015.4 |
| 20260507015506 | 53 | 279 | 0.0 | 0.0 | 0.00 | 0.00 | 0.00 | 28 | 1015.4 |
| 20260507015007 | 54 | 279 | 0.0 | 0.0 | 0.00 | 0.00 | 0.00 | 27 | 1015.4 |
| 20260507014508 | 54 | 279 | 0.0 | 0.0 | 0.00 | 0.00 | 0.00 | 26 | 1015.4 |
| 20260507014006 | 55 | 279 | 0.0 | 0.0 | 0.00 | 0.00 | 0.00 | 26 | 1015.4 |
| 20260507013509 | 55 | 279 | 0.0 | 0.0 | 0.00 | 0.00 | 0.00 | 26 | 1015.4 |
| 20260507013028 | 55 | 279 | 0.0 | 0.0 | 0.00 | 0.00 | 0.00 | 27 | 1015.3 |
| 20260507012505 | 56 | 279 | 0.0 | 0.0 | 0.00 | 0.00 | 0.00 | 26 | 1015.3 |
| 20260507012004 | 56 | 269 | 0.0 | 0.0 | 0.00 | 0.00 | 0.00 | 26 | 1015.3 |
| 20260507011511 | 56 | 268 | 0.0 | 0.0 | 0.00 | 0.00 | 0.00 | 26 | 1015.2 |
| 20260507011005 | 57 | 304 | 0.0 | 0.0 | 0.00 | 0.00 | 0.00 | 25 | 1015.3 |
| 20260507010508 | 57 | 282 | 0.0 | 0.0 | 0.00 | 0.00 | 0.00 | 25 | 1015.4 |
| 20260507010014 | 58 | 295 | 0.0 | 0.0 | 0.00 | 0.00 | 0.00 | 24 | 1015.4 |
| 20260507005513 | 58 | 295 | 0.0 | 0.0 | 0.00 | 0.00 | 0.00 | 23 | 1015.4 |
| 20260507005003 | 58 | 295 | 0.0 | 0.0 | 0.00 | 0.00 | 0.00 | 24 | 1015.4 |
| 20260507004511 | 58 | 333 | 0.0 | 0.0 | 0.00 | 0.00 | 0.00 | 22 | 1015.4 |
| 20260507004007 | 59 | 304 | 0.0 | 5.2 | 0.00 | 0.00 | 0.00 | 22 | 1015.4 |
| 20260507003504 | 59 | 329 | 0.0 | 5.2 | 0.00 | 0.00 | 0.00 | 22 | 1015.4 |
| 20260507003006 | 59 | 321 | 0.0 | 7.0 | 0.00 | 0.00 | 0.00 | 23 | 1015.4 |
| 20260507002507 | 59 | 317 | 0.0 | 7.0 | 0.00 | 0.00 | 0.00 | 22 | 1015.5 |
| 20260507002012 | 59 | 305 | 0.0 | 7.0 | 0.00 | 0.00 | 0.00 | 22 | 1015.5 |
| 20260507001506 | 59 | 328 | 0.9 | 7.0 | 0.00 | 0.00 | 0.00 | 23 | 1015.5 |
| 20260507001004 | 59 | 328 | 1.7 | 7.0 | 0.00 | 0.00 | 0.00 | 22 | 1015.5 |
| 20260507000504 | 59 | 282 | 1.7 | 7.8 | 0.00 | 0.00 | 0.00 | 23 | 1015.7 |
| 20260507000008 | 59 | 323 | 3.5 | 7.8 | 0.00 | 0.00 | 0.00 | 22 | 1015.6 |
| 20260506235504 | 59 | 313 | 0.9 | 7.0 | 0.00 | 0.00 | 0.00 | 23 | 1015.7 |
| 20260506235004 | 59 | 271 | 0.0 | 0.9 | 0.00 | 0.00 | 0.00 | 22 | 1015.7 |
| 20260506234512 | 60 | 321 | 0.0 | 5.2 | 0.00 | 0.00 | 0.00 | 21 | 1015.8 |
| 20260506234003 | 60 | 296 | 0.0 | 5.2 | 0.00 | 0.00 | 0.00 | 22 | 1015.8 |
| 20260506233504 | 60 | 318 | 0.0 | 0.0 | 0.00 | 0.00 | 0.00 | 21 | 1015.8 |
| 20260506233004 | 60 | 294 | 0.0 | 8.7 | 0.00 | 0.00 | 0.00 | 20 | 1015.9 |
| 20260506232502 | 60 | 350 | 2.6 | 8.7 | 0.00 | 0.00 | 0.00 | 21 | 1015.9 |
| 20260506232003 | 60 | 300 | 0.0 | 8.7 | 0.00 | 0.00 | 0.00 | 22 | 1015.8 |
| 20260506231503 | 60 | 319 | 3.5 | 8.7 | 0.00 | 0.00 | 0.00 | 21 | 1015.8 |
| 20260506231002 | 60 | 15 | 0.9 | 8.7 | 0.00 | 0.00 | 0.00 | 24 | 1015.9 |
| 20260506230501 | 60 | 317 | 0.9 | 8.7 | 0.00 | 0.00 | 0.00 | 23 | 1015.9 |
| 20260506230014 | 60 | 275 | 0.9 | 7.8 | 0.00 | 0.00 | 0.00 | 23 | 1016.0 |
| 20260506225505 | 60 | 277 | 0.0 | 7.8 | 0.00 | 0.00 | 0.00 | 22 | 1016.0 |
| 20260506225006 | 60 | 304 | 1.7 | 10.4 | 0.00 | 0.00 | 0.00 | 23 | 1016.1 |
| 20260506224528 | 59 | 277 | 3.5 | 11.3 | 0.00 | 0.00 | 0.00 | 21 | 1016.0 |
| 20260506224005 | 59 | 312 | 5.2 | 14.8 | 0.00 | 0.00 | 0.00 | 21 | 1016.0 |
| 20260506223503 | 59 | 254 | 6.1 | 14.8 | 0.00 | 0.00 | 0.00 | 22 | 1016.0 |
| 20260506223014 | 59 | 335 | 4.3 | 13.9 | 0.00 | 0.00 | 0.00 | 22 | 1016.1 |
| 20260506222507 | 59 | 323 | 5.2 | 13.9 | 0.00 | 0.00 | 0.00 | 21 | 1016.1 |
| 20260506222007 | 59 | 305 | 5.2 | 12.2 | 0.00 | 0.00 | 0.00 | 21 | 1016.1 |
| 20260506221503 | 60 | 294 | 4.3 | 12.2 | 0.00 | 0.00 | 0.00 | 21 | 1016.2 |
| 20260506221003 | 60 | 352 | 3.5 | 12.2 | 0.00 | 0.00 | 0.00 | 22 | 1016.3 |
| 20260506220504 | 60 | 225 | 0.0 | 7.0 | 0.00 | 0.00 | 0.00 | 23 | 1016.4 |
| 20260506220004 | 60 | 308 | 2.6 | 7.8 | 0.00 | 0.00 | 0.00 | 21 | 1016.4 |
| 20260506215503 | 60 | 225 | 0.0 | 11.3 | 0.00 | 0.00 | 0.00 | 25 | 1016.4 |
| 20260506215003 | 60 | 333 | 0.9 | 12.2 | 0.00 | 0.00 | 0.00 | 20 | 1016.5 |
| 20260506214506 | 60 | 305 | 0.0 | 13.0 | 0.00 | 0.00 | 0.00 | 21 | 1016.5 |
| 20260506214004 | 59 | 302 | 5.2 | 13.0 | 0.00 | 0.00 | 0.00 | 25 | 1016.5 |
| 20260506213503 | 60 | 310 | 5.2 | 11.3 | 0.00 | 0.00 | 0.00 | 22 | 1016.7 |
| 20260506213010 | 60 | 306 | 1.7 | 11.3 | 0.00 | 0.00 | 0.00 | 24 | 1016.5 |
| 20260506212503 | 60 | 300 | 5.2 | 11.3 | 0.00 | 0.00 | 0.00 | 21 | 1016.7 |
| 20260506212003 | 59 | 312 | 6.1 | 13.9 | 0.00 | 0.00 | 0.00 | 23 | 1016.8 |
| 20260506211517 | 59 | 296 | 6.1 | 14.8 | 0.00 | 0.00 | 0.00 | 22 | 1016.8 |
| 20260506211006 | 59 | 345 | 7.0 | 14.8 | 0.00 | 0.00 | 0.00 | 22 | 1017.0 |
| 20260506210503 | 59 | 303 | 5.2 | 10.4 | 0.00 | 0.00 | 0.00 | 25 | 1017.0 |
| 20260506210009 | 58 | 313 | 3.5 | 11.3 | 0.00 | 0.00 | 0.00 | 23 | 1017.0 |
| 20260506205505 | 58 | 289 | 4.3 | 11.3 | 0.00 | 0.00 | 0.00 | 23 | 1017.2 |
| 20260506205004 | 58 | 327 | 4.3 | 10.4 | 0.00 | 0.00 | 0.00 | 23 | 1017.3 |
| 20260506204505 | 58 | 286 | 4.3 | 10.4 | 0.00 | 0.00 | 0.00 | 23 | 1017.3 |
| 20260506204002 | 57 | 304 | 4.3 | 10.4 | 0.00 | 0.00 | 0.00 | 26 | 1017.4 |
| 20260506203502 | 57 | 277 | 4.3 | 10.4 | 0.00 | 0.00 | 0.00 | 24 | 1017.4 |
| 20260506203005 | 57 | 342 | 5.2 | 9.6 | 0.00 | 0.00 | 0.00 | 24 | 1017.4 |
| 20260506202503 | 58 | 304 | 2.6 | 12.2 | 0.00 | 0.00 | 0.00 | 24 | 1017.4 |
| 20260506202007 | 58 | 315 | 4.3 | 12.2 | 0.00 | 0.00 | 0.00 | 23 | 1017.6 |
| 20260506201519 | 58 | 292 | 6.1 | 11.3 | 0.00 | 0.00 | 0.00 | 23 | 1017.5 |
| 20260506201004 | 57 | 306 | 5.2 | 13.0 | 0.00 | 0.00 | 0.00 | 26 | 1017.5 |
| 20260506200506 | 57 | 284 | 3.5 | 13.0 | 0.00 | 0.00 | 0.00 | 25 | 1017.7 |
| 20260506200019 | 57 | 298 | 3.5 | 11.3 | 0.00 | 0.00 | 0.00 | 25 | 1017.8 |
| 20260506195503 | 57 | 313 | 6.1 | 12.2 | 0.00 | 0.00 | 0.00 | 25 | 1017.8 |
| 20260506195004 | 57 | 20 | 5.2 | 12.2 | 0.00 | 0.00 | 0.00 | 25 | 1017.8 |
| 20260506194504 | 57 | 292 | 5.2 | 12.2 | 0.00 | 0.00 | 0.00 | 26 | 1017.9 |
| 20260506194006 | 57 | 296 | 4.3 | 12.2 | 0.00 | 0.00 | 0.00 | 26 | 1017.9 |
| 20260506193505 | 57 | 315 | 4.3 | 8.7 | 0.00 | 0.00 | 0.00 | 26 | 1018.0 |
| 20260506193003 | 56 | 335 | 1.7 | 13.0 | 0.00 | 0.00 | 0.00 | 26 | 1018.0 |
| 20260506192502 | 57 | 335 | 5.2 | 13.0 | 0.00 | 0.00 | 0.00 | 25 | 1018.1 |
| 20260506192006 | 57 | 309 | 2.6 | 13.9 | 0.00 | 0.00 | 0.00 | 27 | 1018.1 |
| 20260506191510 | 57 | 275 | 7.0 | 13.9 | 0.00 | 0.00 | 0.00 | 30 | 1018.0 |
| 20260506191007 | 57 | 314 | 7.0 | 12.2 | 0.00 | 0.00 | 0.00 | 25 | 1018.0 |
| 20260506190507 | 57 | 274 | 4.3 | 15.6 | 0.00 | 0.00 | 0.00 | 25 | 1018.0 |
| 20260506190004 | 57 | 321 | 8.7 | 15.6 | 0.00 | 0.00 | 0.00 | 27 | 1018.1 |
| 20260506185505 | 56 | 282 | 0.0 | 10.4 | 0.00 | 0.00 | 0.00 | 27 | 1018.1 |
| 20260506185007 | 57 | 15 | 1.7 | 18.2 | 0.00 | 0.00 | 0.00 | 26 | 1018.2 |
| 20260506184522 | 57 | 295 | 7.8 | 18.2 | 0.00 | 0.00 | 0.00 | 28 | 1018.3 |
| 20260506184003 | 56 | 271 | 3.5 | 13.0 | 0.00 | 0.00 | 0.00 | 26 | 1018.3 |
| 20260506183505 | 57 | 290 | 4.3 | 13.0 | 0.00 | 0.00 | 0.00 | 27 | 1018.4 |
| 20260506183022 | 57 | 327 | 5.2 | 10.4 | 0.00 | 0.00 | 0.00 | 26 | 1018.4 |
| 20260506182504 | 56 | 313 | 3.5 | 15.6 | 0.00 | 0.00 | 0.00 | 28 | 1018.4 |
| 20260506182004 | 55 | 259 | 3.5 | 15.6 | 0.00 | 0.00 | 0.00 | 27 | 1018.4 |
| 20260506181508 | 55 | 316 | 6.1 | 12.2 | 0.00 | 0.00 | 0.00 | 27 | 1018.5 |
| 20260506181006 | 55 | 342 | 6.1 | 12.2 | 0.00 | 0.00 | 0.00 | 28 | 1018.4 |
| 20260506180502 | 55 | 324 | 3.5 | 11.3 | 0.00 | 0.00 | 0.00 | 28 | 1018.6 |
| 20260506180015 | 55 | 352 | 3.5 | 13.0 | 0.00 | 0.00 | 0.00 | 27 | 1018.4 |
| 20260506175503 | 55 | 341 | 7.0 | 13.0 | 0.00 | 0.00 | 0.00 | 29 | 1018.8 |
| 20260506175003 | 56 | 327 | 5.2 | 13.0 | 0.00 | 0.00 | 0.00 | 27 | 1018.7 |
| 20260506174507 | 55 | 331 | 5.2 | 13.0 | 0.00 | 0.00 | 0.00 | 29 | 1018.8 |
| 20260506174008 | 55 | 303 | 6.1 | 13.0 | 0.00 | 0.00 | 0.00 | 27 | 1019.0 |
| 20260506173509 | 55 | 351 | 4.3 | 11.3 | 0.00 | 0.00 | 0.00 | 27 | 1018.9 |
| 20260506173004 | 55 | 282 | 4.3 | 11.3 | 0.00 | 0.00 | 0.00 | 28 | 1018.9 |
| 20260506172506 | 54 | 337 | 2.6 | 7.8 | 0.00 | 0.00 | 0.00 | 28 | 1019.1 |
| 20260506172009 | 54 | 346 | 2.6 | 9.6 | 0.00 | 0.00 | 0.00 | 29 | 1019.1 |
| 20260506171506 | 54 | 352 | 4.3 | 9.6 | 0.00 | 0.00 | 0.00 | 32 | 1019.2 |
| 20260506171004 | 53 | 267 | 2.6 | 8.7 | 0.00 | 0.00 | 0.00 | 31 | 1019.3 |
| 20260506170505 | 53 | 316 | 4.3 | 12.2 | 0.00 | 0.00 | 0.00 | 28 | 1019.4 |
| 20260506170011 | 53 | 263 | 5.2 | 12.2 | 0.00 | 0.00 | 0.00 | 30 | 1019.4 |
| 20260506165504 | 53 | 304 | 3.5 | 10.4 | 0.00 | 0.00 | 0.00 | 29 | 1019.4 |
| 20260506165007 | 53 | 315 | 6.1 | 11.3 | 0.00 | 0.00 | 0.00 | 30 | 1019.5 |
| 20260506164516 | 52 | 300 | 5.2 | 11.3 | 0.00 | 0.00 | 0.00 | 30 | 1019.5 |
| 20260506164007 | 52 | 290 | 3.5 | 11.3 | 0.00 | 0.00 | 0.00 | 29 | 1019.5 |
| 20260506163504 | 53 | 311 | 6.1 | 12.2 | 0.00 | 0.00 | 0.00 | 28 | 1019.5 |
| 20260506163025 | 53 | 348 | 6.1 | 12.2 | 0.00 | 0.00 | 0.00 | 30 | 1019.5 |
| 20260506162508 | 52 | 352 | 5.2 | 11.3 | 0.00 | 0.00 | 0.00 | 32 | 1019.6 |
| 20260506162008 | 53 | 312 | 4.3 | 8.7 | 0.00 | 0.00 | 0.00 | 30 | 1019.6 |
| 20260506161514 | 52 | 315 | 2.6 | 9.6 | 0.00 | 0.00 | 0.00 | 32 | 1019.5 |
| 20260506161010 | 52 | 302 | 3.5 | 13.0 | 0.00 | 0.00 | 0.00 | 30 | 1019.4 |
| 20260506160513 | 52 | 250 | 3.5 | 13.0 | 0.00 | 0.00 | 0.00 | 33 | 1019.5 |
| 20260506160011 | 51 | 340 | 3.5 | 11.3 | 0.00 | 0.00 | 0.00 | 32 | 1019.5 |
| 20260506155504 | 51 | 355 | 4.3 | 13.0 | 0.00 | 0.00 | 0.00 | 32 | 1019.5 |
| 20260506155006 | 51 | 342 | 5.2 | 13.0 | 0.00 | 0.00 | 0.00 | 31 | 1019.5 |
| 20260506154505 | 51 | 340 | 5.2 | 10.4 | 0.00 | 0.00 | 0.00 | 32 | 1019.4 |
| 20260506154004 | 51 | 309 | 3.5 | 7.8 | 0.00 | 0.00 | 0.00 | 31 | 1019.3 |
| 20260506153503 | 52 | 342 | 2.6 | 10.4 | 0.00 | 0.00 | 0.00 | 32 | 1019.3 |
| 20260506153014 | 52 | 327 | 1.7 | 10.4 | 0.00 | 0.00 | 0.00 | 34 | 1019.3 |
| 20260506152504 | 51 | 299 | 3.5 | 8.7 | 0.00 | 0.00 | 0.00 | 31 | 1019.2 |
| 20260506152007 | 51 | 319 | 2.6 | 8.7 | 0.00 | 0.00 | 0.00 | 32 | 1019.2 |
| 20260506151526 | 51 | 269 | 1.7 | 9.6 | 0.00 | 0.00 | 0.00 | 33 | 1019.2 |
| 20260506151007 | 51 | 331 | 3.5 | 9.6 | 0.00 | 0.00 | 0.00 | 34 | 1019.2 |
| 20260506150505 | 50 | 347 | 2.6 | 11.3 | 0.00 | 0.00 | 0.00 | 33 | 1019.2 |
| 20260506150022 | 50 | 334 | 4.3 | 11.3 | 0.00 | 0.00 | 0.00 | 34 | 1019.2 |
| 20260506145506 | 49 | 279 | 2.6 | 9.6 | 0.00 | 0.00 | 0.00 | 33 | 1019.2 |
| 20260506145004 | 49 | 308 | 0.9 | 9.6 | 0.00 | 0.00 | 0.00 | 36 | 1019.2 |
| 20260506144512 | 49 | 341 | 5.2 | 10.4 | 0.00 | 0.00 | 0.00 | 35 | 1019.2 |
| 20260506144007 | 49 | 306 | 3.5 | 10.4 | 0.00 | 0.00 | 0.00 | 35 | 1019.2 |
| 20260506143508 | 49 | 346 | 1.7 | 9.6 | 0.00 | 0.00 | 0.00 | 36 | 1019.3 |
| 20260506143023 | 49 | 333 | 3.5 | 7.8 | 0.00 | 0.00 | 0.00 | 35 | 1019.3 |
| 20260506142506 | 48 | 345 | 3.5 | 7.0 | 0.00 | 0.00 | 0.00 | 35 | 1019.3 |
| 20260506142007 | 48 | 278 | 0.0 | 7.0 | 0.00 | 0.00 | 0.00 | 36 | 1019.3 |
| 20260506141509 | 48 | 304 | 2.6 | 7.0 | 0.00 | 0.00 | 0.00 | 37 | 1019.2 |
| 20260506141011 | 48 | 336 | 3.5 | 7.0 | 0.00 | 0.00 | 0.00 | 38 | 1019.1 |
| 20260506140511 | 48 | 341 | 2.6 | 7.0 | 0.00 | 0.00 | 0.00 | 40 | 1019.1 |
| 20260506140005 | 47 | 303 | 0.0 | 0.9 | 0.00 | 0.00 | 0.00 | 42 | 1019.1 |
| 20260506135506 | 47 | 288 | 0.0 | 0.0 | 0.00 | 0.00 | 0.00 | 45 | 1019.1 |
| 20260506135003 | 46 | 330 | 0.0 | 0.0 | 0.00 | 0.00 | 0.00 | 46 | 1019.1 |
| 20260506134506 | 46 | 254 | 0.0 | 0.0 | 0.00 | 0.00 | 0.00 | 47 | 1019.0 |
| 20260506134003 | 46 | 334 | 0.0 | 0.0 | 0.00 | 0.00 | 0.00 | 47 | 1019.0 |
| 20260506133507 | 45 | 334 | 0.0 | 0.0 | 0.00 | 0.00 | 0.00 | 48 | 1018.9 |
| 20260506133013 | 45 | 331 | 0.0 | 0.0 | 0.00 | 0.00 | 0.00 | 49 | 1018.9 |
| 20260506132506 | 44 | 331 | 0.0 | 0.0 | 0.00 | 0.00 | 0.00 | 50 | 1018.9 |
| 20260506132008 | 44 | 331 | 0.0 | 0.0 | 0.00 | 0.00 | 0.00 | 51 | 1018.8 |
| 20260506131527 | 43 | 331 | 0.0 | 0.0 | 0.00 | 0.00 | 0.00 | 52 | 1018.7 |
| 20260506131004 | 43 | 282 | 0.0 | 0.0 | 0.00 | 0.00 | 0.00 | 53 | 1018.6 |
| 20260506130507 | 42 | 279 | 0.0 | 0.0 | 0.00 | 0.00 | 0.00 | 53 | 1018.6 |
| 20260506130016 | 42 | 350 | 0.0 | 0.0 | 0.00 | 0.00 | 0.00 | 54 | 1018.6 |
| 20260506125508 | 41 | 350 | 0.0 | 0.0 | 0.00 | 0.00 | 0.00 | 55 | 1018.5 |
| 20260506125004 | 41 | 350 | 0.0 | 0.0 | 0.00 | 0.00 | 0.00 | 56 | 1018.5 |
| 20260506124507 | 41 | 350 | 0.0 | 0.0 | 0.00 | 0.00 | 0.00 | 56 | 1018.6 |
| 20260506124003 | 40 | 350 | 0.0 | 0.0 | 0.00 | 0.00 | 0.00 | 57 | 1018.4 |
| 20260506123503 | 40 | 350 | 0.0 | 0.0 | 0.00 | 0.00 | 0.00 | 57 | 1018.3 |
| 20260506123007 | 40 | 350 | 0.0 | 0.0 | 0.00 | 0.00 | 0.00 | 57 | 1018.3 |
| 20260506122504 | 39 | 350 | 0.0 | 0.0 | 0.00 | 0.00 | 0.00 | 57 | 1018.2 |
| 20260506122006 | 39 | 350 | 0.0 | 0.0 | 0.00 | 0.00 | 0.00 | 58 | 1018.1 |
| 20260506121510 | 39 | 350 | 0.0 | 0.0 | 0.00 | 0.00 | 0.00 | 59 | 1017.9 |
| 20260506121008 | 39 | 350 | 0.0 | 0.0 | 0.00 | 0.00 | 0.00 | 59 | 1017.8 |
| 20260506120507 | 39 | 350 | 0.0 | 0.0 | 0.00 | 0.00 | 0.00 | 57 | 1017.7 |
| 20260506120028 | 39 | 350 | 0.0 | 0.0 | 0.00 | 0.00 | 0.00 | 58 | 1017.7 |
| 20260506115506 | 39 | 350 | 0.0 | 0.0 | 0.00 | 0.00 | 0.00 | 58 | 1017.7 |
| 20260506115007 | 39 | 350 | 0.0 | 0.0 | 0.00 | 0.00 | 0.00 | 57 | 1017.6 |
| 20260506114523 | 39 | 350 | 0.0 | 0.0 | 0.00 | 0.00 | 0.00 | 57 | 1017.6 |